Location: Newark
(35.2672°N, 80.7344°W)
Time: 22:31:44
(UTC+00:00)

Vanguard 1 - Visible Passes

Search period start: 24 January 2020 00:00
Search period end: 03 February 2020 00:00
Orbit: 651 x 3833 km, 34.2° (Epoch: 24 January)

Date Brightness Start Highest point End Pass type
(mag) Time Alt. Az. Time Alt. Az. Time Alt. Az.
24 Jan 11.3 01:51:44 10° W 01:54:27 34° W 01:54:27 34° W visible
24 Jan 9.5 23:53:18 10° W 23:57:49 82° S 00:01:37 23° E visible
25 Jan 12.0 02:12:38 10° W 02:14:20 22° W 02:14:20 22° W visible
26 Jan 9.6 00:14:12 10° W 00:18:47 80° S 00:21:30 33° ESE visible
26 Jan 12.5 02:33:37 10° W 02:34:14 14° W 02:34:14 14° W visible
27 Jan 9.7 00:35:06 10° W 00:39:46 72° S 00:41:26 47° ESE visible
28 Jan 10.0 00:56:01 10° W 01:00:43 61° SSW 01:01:23 56° SSE visible
29 Jan 10.4 01:16:57 10° W 01:21:22 48° SSW 01:21:22 48° SSW visible
29 Jan 9.4 23:18:12 10° W 23:22:35 77° S 23:27:54 10° E visible
30 Jan 11.1 01:37:59 10° W 01:41:23 33° SW 01:41:23 33° SW visible
30 Jan 9.6 23:39:10 10° W 23:43:31 66° S 23:48:42 11° ESE visible
31 Jan 11.8 01:59:12 10° W 02:01:26 21° WSW 02:01:26 21° WSW visible
01 Feb 9.9 00:00:08 10° W 00:04:26 53° SSW 00:08:48 15° ESE visible
01 Feb 12.3 02:20:46 10° WSW 02:21:33 13° WSW 02:21:33 13° WSW visible
02 Feb 10.4 00:21:09 10° W 00:25:21 40° SSW 00:28:58 18° SE visible
